Holbrook, NY

5:14 PM EST on December 08, 2016 (GMT -0500)
Long Island Mac Arthur

Weather History for KISP - May, 2013

Change the Weather History Date:

Monday, May 13, 2013

  Actual Average Record
Temperature  
Mean Temperature 50 °F 58 °F  
Max Temperature 58 °F 67 °F 80 °F (2004)
Min Temperature 42 °F 49 °F 37 °F (2005)
Degree Days  
Heating Degree Days 15 8  
Month to date heating degree days 112 123  
Since 1 July heating degree days 4996 5294  
Cooling Degree Days 0 0  
Month to date cooling degree days 0 0  
Year to date cooling degree days 1 2  
Growing Degree Days 2 (Base 50)    
Moisture  
Dew Point 27 °F    
Average Humidity 45    
Maximum Humidity 62    
Minimum Humidity 27    
Precipitation  
Precipitation 0.00 in 0.11 in 0.51 in (2002)
Month to date precipitation 0.63 1.50  
Year to date precipitation 12.93 17.18  
Snow  
Snow 0.00 in 0.00 in - ()
Month to date snowfall 0.0 0.0  
Since 1 July snowfall 46.9 24.8  
Snow Depth 0.00 in    
Sea Level Pressure  
Sea Level Pressure 29.99 in    
Wind  
Wind Speed 11 mph (WNW)    
Max Wind Speed 21 mph    
Max Gust Speed 26 mph    
Visibility 10 miles    
Events      
T = Trace of Precipitation, MM = Missing Value Source: NWS Daily Summary

Daily Weather History Graph

Daily Weather History Graph

Search for Another Location

Airport or City:

Trip Planner

Search our weather history database for the weather conditions in past years. The results will help you decide how hot, cold, wet, or windy it might be!

Date:

Astronomy

May. 13, 2013 Rise Set
Actual Time 5:36 AM EDT 8:01 PM EDT
Civil Twilight 5:05 AM EDT 8:32 PM EDT
Nautical Twilight 4:27 AM EDT 9:10 PM EDT
Astronomical Twilight 3:45 AM EDT 9:53 PM EDT
Moon 8:20 AM EDT (5/13) 11:08 PM EDT (5/13)
Length of Visible Light 15h 26m
Length of Day
14h 24m
Waxing Crescent, 12% of the Moon is Illuminated
May 13
Waxing Crescent
May 18
First Quarter
May 25
Full
May 31
Last Quarter
Jun 8
New

Hourly Weather History & Observations

Time (EDT) Temp. Windchill Dew Point Humidity Pressure Visibility Wind Dir Wind Speed Gust Speed Precip Events Conditions
12:56 AM 51.1 °F - 27.0 °F 39% 29.92 in 10.0 mi West 10.4 mph - N/A   Clear
1:56 AM 48.0 °F - 28.0 °F 46% 29.93 in 10.0 mi West 6.9 mph - N/A   Clear
2:56 AM - - - N/A% 29.93 in 10.0 mi North - - N/A   Unknown
3:56 AM - - - N/A% 29.94 in 10.0 mi North - - N/A   Unknown
4:56 AM - - - N/A% 29.96 in 10.0 mi North - - N/A   Unknown
5:56 AM 46.9 °F - 25.0 °F 42% 29.98 in 10.0 mi West 9.2 mph - N/A   Scattered Clouds
6:56 AM 51.1 °F - 31.1 °F 46% 29.99 in 10.0 mi West 10.4 mph - N/A   Scattered Clouds
7:56 AM 53.1 °F - 28.0 °F 38% 30.01 in 10.0 mi West 8.1 mph - N/A   Mostly Cloudy
8:56 AM 53.1 °F - 26.1 °F 35% 30.01 in 10.0 mi West 10.4 mph - N/A   Scattered Clouds
9:56 AM 54.3 °F - 25.3 °F 33% 30.01 in 10.0 mi West 17.3 mph - N/A   Scattered Clouds
10:56 AM 54.3 °F - 25.3 °F 33% 30.00 in 10.0 mi West 11.5 mph - N/A   Mostly Cloudy
11:56 AM 55.0 °F - 24.6 °F 31% 30.01 in 10.0 mi West 17.3 mph - N/A   Mostly Cloudy
12:56 PM 54.0 °F - 26.1 °F 34% 30.00 in 10.0 mi Variable 6.9 mph 19.6 mph N/A   Mostly Cloudy
1:56 PM 55.9 °F - 26.1 °F 32% 29.99 in 10.0 mi WSW 9.2 mph - N/A   Mostly Cloudy
2:56 PM 57.9 °F - 25.0 °F 28% 29.98 in 10.0 mi West 15.0 mph 23.0 mph N/A   Mostly Cloudy
4:56 PM 55.0 °F - 23.0 °F 29% 29.97 in 10.0 mi WNW 12.7 mph - N/A   Mostly Cloudy
5:56 PM 55.0 °F - 25.0 °F 31% 29.98 in 10.0 mi WNW 16.1 mph 21.9 mph N/A   Mostly Cloudy
6:56 PM 53.1 °F - 23.0 °F 31% 29.98 in 10.0 mi WNW 11.5 mph - N/A   Scattered Clouds
7:56 PM 51.1 °F - 21.9 °F 32% 30.00 in 10.0 mi NW 9.2 mph - N/A   Scattered Clouds
8:56 PM 48.9 °F - 28.0 °F 44% 30.04 in 10.0 mi NNW 12.7 mph - N/A   Scattered Clouds
9:56 PM 46.9 °F - 30.0 °F 52% 30.06 in 10.0 mi NW 8.1 mph - N/A   Partly Cloudy
10:56 PM 46.0 °F 43.1 °F 30.9 °F 56% 30.07 in 10.0 mi NW 5.8 mph - N/A   Clear
11:56 PM 43.0 °F 39.5 °F 30.9 °F 62% 30.07 in 10.0 mi NW 5.8 mph - N/A   Partly Cloudy